Flag for Guinea Weather past 2 weeks in Nzérékoré, Guinea

Now
70 °F

Passing clouds.


Feels Like: 70 °F
Forecast: 67 / 79 °F
Wind: No wind

Location: Roberts Field

Current Time: Jul 29, 2015 at 6:54:55 AM

Latest Report: Jul 29, 2015 at 6:30 AM


Visibility: N/A

Pressure: 29.98 "Hg

Humidity: 94%

Dew point: 68 °F

Location of NzérékoréLocation

Historic Weather in Nzérékoré — Graph

°F

Nzérékoré temperature yesterday

Maximum temperature yesterday: 81 °F (at 10:30 AM)
Minimum temperature yesterday: 73 °F (at 4:30 AM)
Average temperature yesterday: 77 °F

Past Weeks' High & Low Weather Summary

 TemperatureHumidityPressure
High84 °F (Jul 18, 10:30 AM)100% (Jul 16, 6:00 PM)30.04 "Hg (Jul 16, 6:00 PM)
Low73 °F (Jul 14, 6:00 AM)70% (Jul 26, 12:30 PM)29.89 "Hg (Jul 14, 3:00 PM)
Average78 °F89%29.96 "Hg
* Reported Jul 14 4:00 AM — Jul 29 4:30 AM, Nzérékoré, Weather by CustomWeather, © 2015

Note: Actual official high and low records may vary slightly from our data, if they occured in-between our weather recording intervals... More about our weather records

Advertising

Nzérékoré weather history for previous 24 hours

 ConditionsComfort  
Time TempWeatherWind HumidityBarometerVisibility
4:30 AM
Wed, Jul 29
73 °FPassing clouds.No wind94%29.98 "HgN/A
4:00 AM73 °FPassing clouds.No wind94%29.95 "HgN/A
2:30 AM75 °FPassing clouds.No wind89%29.98 "HgN/A
2:00 AM75 °FPassing clouds.No wind89%29.98 "HgN/A
1:00 AM77 °FPassing clouds.5 mph83%29.98 "HgN/A
12:30 AM77 °FPassing clouds.No wind83%30.01 "HgN/A
11:30 PM
Tue, Jul 28
77 °FPassing clouds.3 mph83%30.01 "HgN/A
11:00 PM77 °FPassing clouds.3 mph83%30.01 "HgN/A
9:30 PM77 °FPassing clouds.5 mph83%30.01 "HgN/A
9:00 PM77 °FPassing clouds.10 mph83%29.98 "HgN/A
8:30 PM77 °FPassing clouds.8 mph83%29.98 "HgN/A
8:00 PM77 °FPassing clouds.3 mph83%29.95 "HgN/A
7:30 PM77 °FPartly sunny.6 mph83%29.95 "HgN/A
7:00 PM77 °FPartly sunny.No wind83%29.95 "HgN/A
6:00 PM77 °FPartly sunny.7 mph83%29.95 "HgN/A
5:30 PM77 °FPartly sunny.7 mph83%29.92 "HgN/A
5:00 PM79 °FPartly sunny.7 mph84%29.92 "HgN/A
4:00 PM81 °FPartly sunny.7 mph79%29.95 "HgN/A
3:30 PM81 °FPartly sunny.10 mph79%29.95 "HgN/A
3:00 PM79 °FPartly sunny.9 mph79%29.95 "HgN/A
2:30 PM79 °FPartly sunny.9 mph79%29.95 "HgN/A
2:00 PM81 °FPartly sunny.13 mph74%29.95 "HgN/A
1:30 PM81 °FPartly sunny.13 mph74%29.95 "HgN/A
1:00 PM79 °FPartly sunny.8 mph79%29.98 "HgN/A
12:30 PM81 °FPartly sunny.7 mph74%29.98 "HgN/A
12:00 PM81 °FPartly sunny.8 mph74%29.98 "HgN/A
11:30 AM79 °FPartly sunny.10 mph84%30.01 "HgN/A
11:00 AM79 °FPartly sunny.9 mph84%30.01 "HgN/A
10:30 AM81 °FPartly sunny.9 mph74%30.01 "HgN/A
10:00 AM79 °FPartly sunny.12 mph79%30.01 "HgN/A
9:30 AM77 °FPartly sunny.9 mph83%30.01 "HgN/A
9:00 AM75 °FPartly sunny.5 mph94%29.98 "HgN/A
8:30 AM75 °FPartly sunny.5 mph94%29.98 "HgN/A
8:00 AM75 °FPartly sunny.8 mph89%29.98 "HgN/A
7:30 AM73 °FPassing clouds.6 mph89%29.95 "HgN/A
7:00 AM73 °FPassing clouds.No wind94%29.95 "HgN/A
6:00 AM73 °FPassing clouds.No wind94%29.95 "HgN/A
Weather by CustomWeather, © 2015

See weather overviewHow to use our weather pages